Location: Unspecified
(0.0000°N, 0.0000°E)
Time: 10:32:04
(UTC+00:00)

Explorer 11/Cluster Stage 4 - Pass Details

Date: 22 September 2019
Orbit: 467 x 1259 km, 28.8° (Epoch: 20 February)

Event Time Altitude Azimuth Distance (km) Brightness Sun altitude
Exits shadow 04:25:31 24° 2° (N) 1,012 7.2 -21.9°
Maximum altitude 04:26:32 27° 31° (NNE) 926 7.2 -21.6°
Drops below altitude 10° 04:29:47 10° 91° (E) 1,685 9.5 -20.8°
Sets 04:32:20 0° 103° (ESE) 2,650 10.7 -20.1°
